NORTHEAST SUFFOLK  -  Winter Weather Advisory Winter Weather Advisory     Winter Weather Advisory Winter Weather Advisory        NORTHERN NASSAU  -  Winter Weather Advisory Winter Weather Advisory        NORTHWEST SUFFOLK  -  Winter Weather Advisory Winter Weather Advisory     Winter Weather Advisory Winter Weather Advisory        SOUTHEAST SUFFOLK  -  Winter Weather Advisory Winter Weather Advisory     Winter Weather Advisory Winter Weather Advisory        SOUTHERN NASSAU  -  Winter Weather Advisory Winter Weather Advisory        SOUTHWEST SUFFOLK  -  Winter Weather Advisory Winter Weather Advisory     Winter Weather Advisory Winter Weather Advisory      

Active alerts

Northern Nassau
  Details for Northern Nassau Winter Weather Advisory
Southern Nassau
  Details for Southern Nassau Winter Weather Advisory
Northwest Suffolk
  Details for Northwest Suffolk Winter Weather Advisory  +1 additional alert
Southwest Suffolk
  Details for Southwest Suffolk Winter Weather Advisory  +1 additional alert
Northeast Suffolk
  Details for Northeast Suffolk Winter Weather Advisory  +1 additional alert
Southeast Suffolk
  Details for Southeast Suffolk Winter Weather Advisory  +1 additional alert


WXM80 ListenWXM80 Stop

You find our weather info also at:

UK Metoffice

WeatherCloud

Weather Underground

Northeastern Weather Network

AWEKAS

Citizen Weather Observer Program (CWOP)

HAMweather, WeatherForYou, PWS Weather


Weather Underground History page Text

Daily Summary for February 2, 2016 Units:  English    Metric   Both
« Previous Day
Next Day »
Daily Weekly Monthly Yearly Custom
  High: Low: Average:
Temperature: 50.7 °F 33.1 °F 41.6 °F
Dew Point: 33.9 °F 28.2 °F 31.1 °F
Humidity: 89 % 44 % 67 %
Wind Speed: 6.6 mph 0.0 mph 1.6 mph
Wind Gust: 10.4 mph - -
Wind:- - SSW
Pressure: 30.36 in 30.07 in -
Precipitation: 0.00 in    
Historical Graphs
 
 
Tabular Data for February 2, 2016
Time Temperature Dew Point Pressure Wind Wind Speed Wind Gust Humidity Rainfall Rate (Hourly)
00:03 41.1 °F 31.3 °F 30.07 in NNE 4.0 mph 5.8 mph 68 % 0.00 in
00:08 41.1 °F 31.3 °F 30.07 in NNE 6.6 mph 10.4 mph 68 % 0.00 in
00:13 41.1 °F 31.3 °F 30.07 in NNE 3.0 mph 4.6 mph 68 % 0.00 in
00:18 41.0 °F 31.2 °F 30.08 in North 4.0 mph 9.2 mph 68 % 0.00 in
00:23 41.0 °F 30.9 °F 30.08 in NNE 3.5 mph 9.2 mph 67 % 0.00 in
00:28 40.9 °F 31.1 °F 30.07 in NE 2.8 mph 4.6 mph 68 % 0.00 in
00:38 40.8 °F 31.4 °F 30.08 in NNE 2.2 mph 3.5 mph 69 % 0.00 in
00:44 40.7 °F 31.3 °F 30.08 in NE 3.5 mph 5.8 mph 69 % 0.00 in
00:49 40.6 °F 31.6 °F 30.08 in NNE 4.3 mph 5.8 mph 70 % 0.00 in
00:54 40.5 °F 31.5 °F 30.08 in NNE 3.4 mph 5.8 mph 70 % 0.00 in
00:59 40.5 °F 31.8 °F 30.09 in NNE 2.1 mph 5.0 mph 71 % 0.00 in
01:04 40.4 °F 31.7 °F 30.08 in NNE 2.6 mph 4.6 mph 71 % 0.00 in
01:09 40.4 °F 31.7 °F 30.08 in North 2.6 mph 4.6 mph 71 % 0.00 in
01:14 40.3 °F 32.0 °F 30.08 in North 4.0 mph 6.0 mph 72 % 0.00 in
01:24 40.1 °F 31.8 °F 30.08 in NNE 1.3 mph 4.6 mph 72 % 0.00 in
01:35 39.9 °F 31.6 °F 30.08 in NNE 2.0 mph 4.6 mph 72 % 0.00 in
01:40 39.9 °F 31.6 °F 30.09 in North 1.2 mph 3.5 mph 72 % 0.00 in
01:45 39.8 °F 31.5 °F 30.10 in NNW 2.8 mph 3.5 mph 72 % 0.00 in
01:50 39.7 °F 31.8 °F 30.10 in NNW 2.0 mph 3.5 mph 73 % 0.00 in
01:55 39.7 °F 31.8 °F 30.10 in North 1.3 mph 3.5 mph 73 % 0.00 in
02:00 39.5 °F 31.6 °F 30.11 in NNW 1.7 mph 3.5 mph 73 % 0.00 in
02:05 39.4 °F 31.5 °F 30.11 in NNW 0.3 mph 2.3 mph 73 % 0.00 in
02:10 39.3 °F 31.7 °F 30.11 in North 1.5 mph 3.5 mph 74 % 0.00 in
02:15 39.2 °F 31.6 °F 30.12 in North 0.1 mph 1.2 mph 74 % 0.00 in
02:20 39.2 °F 31.3 °F 30.12 in North 2.1 mph 3.5 mph 73 % 0.00 in
02:26 39.1 °F 31.5 °F 30.12 in North 1.2 mph 2.3 mph 74 % 0.00 in
02:31 39.0 °F 31.4 °F 30.12 in North 0.4 mph 1.2 mph 74 % 0.00 in
02:36 38.9 °F 31.3 °F 30.12 in NNW 2.1 mph 3.5 mph 74 % 0.00 in
02:41 38.8 °F 31.2 °F 30.12 in North 0.7 mph 3.5 mph 74 % 0.00 in
02:46 38.8 °F 31.2 °F 30.13 in NW 2.1 mph 4.0 mph 74 % 0.00 in
02:51 38.8 °F 31.2 °F 30.13 in North 0.4 mph 3.5 mph 74 % 0.00 in
02:56 38.8 °F 31.2 °F 30.13 in North 1.1 mph 3.5 mph 74 % 0.00 in
03:01 38.7 °F 31.5 °F 30.13 in North 0.7 mph 3.5 mph 75 % 0.00 in
03:06 38.6 °F 31.4 °F 30.14 in NW 0.3 mph 1.2 mph 75 % 0.00 in
03:11 38.5 °F 31.3 °F 30.13 in NNW 1.2 mph 2.0 mph 75 % 0.00 in
03:17 38.5 °F 31.3 °F 30.14 in Calm   1.2 mph 75 % 0.00 in
03:22 38.4 °F 31.2 °F 30.14 in NNW 1.9 mph 4.6 mph 75 % 0.00 in
03:27 38.3 °F 31.1 °F 30.14 in North 1.5 mph 4.6 mph 75 % 0.00 in
03:32 38.2 °F 31.0 °F 30.14 in NNW 0.2 mph 1.2 mph 75 % 0.00 in
03:37 38.2 °F 31.0 °F 30.14 in NNW 1.4 mph 3.5 mph 75 % 0.00 in
03:42 38.2 °F 31.0 °F 30.15 in NNW 1.5 mph 3.5 mph 75 % 0.00 in
03:47 38.1 °F 30.9 °F 30.15 in NNW 1.7 mph 3.5 mph 75 % 0.00 in
03:52 38.0 °F 30.8 °F 30.15 in NNW 1.0 mph 2.3 mph 75 % 0.00 in
03:57 38.0 °F 31.1 °F 30.15 in NNW 1.3 mph 3.5 mph 76 % 0.00 in
04:02 38.0 °F 31.1 °F 30.16 in North 1.4 mph 3.5 mph 76 % 0.00 in
04:08 37.9 °F 31.0 °F 30.16 in North 1.1 mph 3.5 mph 76 % 0.00 in
04:13 37.9 °F 31.0 °F 30.16 in North 2.3 mph 3.5 mph 76 % 0.00 in
04:18 37.9 °F 31.0 °F 30.16 in NE 0.7 mph 2.3 mph 76 % 0.00 in
04:23 37.8 °F 30.9 °F 30.16 in NE 2.1 mph 3.5 mph 76 % 0.00 in
04:28 37.8 °F 30.9 °F 30.16 in NE 1.9 mph 3.5 mph 76 % 0.00 in
04:33 37.8 °F 31.2 °F 30.16 in Calm     77 % 0.00 in
04:38 37.7 °F 30.8 °F 30.17 in Calm     76 % 0.00 in
04:48 37.4 °F 30.8 °F 30.17 in Calm     77 % 0.00 in
04:53 37.3 °F 30.7 °F 30.17 in NE 0.2 mph 2.3 mph 77 % 0.00 in
05:04 36.9 °F 30.7 °F 30.17 in NNE 1.4 mph 3.5 mph 78 % 0.00 in
05:09 36.8 °F 30.6 °F 30.17 in NNE 1.0 mph 3.5 mph 78 % 0.00 in
05:14 36.7 °F 30.5 °F 30.18 in NNE 1.4 mph 2.3 mph 78 % 0.00 in
05:24 36.5 °F 30.6 °F 30.18 in NNE 0.2 mph 1.2 mph 79 % 0.00 in
05:29 36.5 °F 30.6 °F 30.18 in NNE 0.4 mph 2.3 mph 79 % 0.00 in
05:34 36.5 °F 30.6 °F 30.18 in NNE 0.8 mph 3.5 mph 79 % 0.00 in
05:39 36.3 °F 30.4 °F 30.18 in NNE 0.1 mph 2.0 mph 79 % 0.00 in
05:44 36.2 °F 30.3 °F 30.18 in NNE 0.3 mph 2.3 mph 79 % 0.00 in
05:50 36.1 °F 30.2 °F 30.18 in Calm     79 % 0.00 in
05:55 35.9 °F 30.0 °F 30.18 in Calm     79 % 0.00 in
06:00 35.7 °F 29.8 °F 30.18 in Calm     79 % 0.00 in
06:05 35.4 °F 29.5 °F 30.18 in Calm     79 % 0.00 in
06:10 35.0 °F 29.5 °F 30.19 in Calm     80 % 0.00 in
06:15 34.8 °F 29.3 °F 30.19 in Calm     80 % 0.00 in
06:25 34.4 °F 29.2 °F 30.19 in Calm     81 % 0.00 in
06:30 34.1 °F 29.2 °F 30.19 in Calm     82 % 0.00 in
06:35 33.9 °F 29.3 °F 30.20 in Calm     83 % 0.00 in
06:41 33.7 °F 29.4 °F 30.20 in Calm   1.2 mph 84 % 0.00 in
06:46 33.5 °F 29.2 °F 30.21 in Calm     84 % 0.00 in
06:51 33.4 °F 29.1 °F 30.21 in Calm     84 % 0.00 in
06:56 33.3 °F 29.0 °F 30.22 in Calm     84 % 0.00 in
07:01 33.1 °F 29.1 °F 30.22 in Calm     85 % 0.00 in
07:06 33.1 °F 29.4 °F 30.23 in Calm   1.2 mph 86 % 0.00 in
07:11 33.1 °F 29.7 °F 30.23 in Calm     87 % 0.00 in
07:16 33.1 °F 29.9 °F 30.24 in NNE 0.4 mph 2.3 mph 88 % 0.00 in
07:21 33.2 °F 30.0 °F 30.24 in NNE 1.4 mph 3.5 mph 88 % 0.00 in
07:26 33.3 °F 30.4 °F 30.25 in NNE 1.0 mph 2.3 mph 89 % 0.00 in
07:32 33.4 °F 30.5 °F 30.25 in WSW 1.6 mph 2.3 mph 89 % 0.00 in
07:37 33.5 °F 30.6 °F 30.26 in WSW 1.1 mph 2.3 mph 89 % 0.00 in
07:42 33.7 °F 30.8 °F 30.27 in Calm   2.3 mph 89 % 0.00 in
07:47 33.9 °F 31.0 °F 30.27 in West 1.0 mph 2.3 mph 89 % 0.00 in
07:52 34.1 °F 31.2 °F 30.27 in West 2.0 mph 3.5 mph 89 % 0.00 in
07:57 34.3 °F 31.4 °F 30.28 in West 1.7 mph 4.6 mph 89 % 0.00 in
08:02 34.5 °F 31.3 °F 30.28 in WNW 1.0 mph 4.0 mph 88 % 0.00 in
08:07 34.8 °F 31.6 °F 30.28 in WNW 1.3 mph 3.5 mph 88 % 0.00 in
08:12 35.1 °F 31.6 °F 30.28 in WNW 3.1 mph 3.5 mph 87 % 0.00 in
08:18 35.6 °F 31.8 °F 30.29 in WNW 2.5 mph 4.6 mph 86 % 0.00 in
08:23 36.1 °F 32.0 °F 30.29 in WNW 2.3 mph 4.6 mph 85 % 0.00 in
08:28 36.7 °F 32.3 °F 30.30 in WNW 1.8 mph 3.5 mph 84 % 0.00 in
08:33 37.1 °F 32.4 °F 30.30 in WNW 2.5 mph 4.6 mph 83 % 0.00 in
08:43 38.1 °F 33.1 °F 30.30 in West 2.8 mph 4.6 mph 82 % 0.00 in
08:48 38.5 °F 33.2 °F 30.31 in WSW 3.8 mph 5.0 mph 81 % 0.00 in
08:53 39.0 °F 33.4 °F 30.31 in WNW 3.3 mph 4.6 mph 80 % 0.00 in
08:58 39.4 °F 33.4 °F 30.31 in NW 0.4 mph 3.5 mph 79 % 0.00 in
09:03 40.0 °F 33.4 °F 30.31 in WNW 3.2 mph 4.0 mph 77 % 0.00 in
09:09 40.5 °F 33.2 °F 30.31 in WNW 1.8 mph 4.0 mph 75 % 0.00 in
09:14 41.0 °F 33.0 °F 30.31 in West 1.4 mph 3.5 mph 73 % 0.00 in
09:19 41.3 °F 33.0 °F 30.31 in WNW 2.7 mph 4.0 mph 72 % 0.00 in
09:24 41.5 °F 32.4 °F 30.31 in WNW 2.3 mph 3.5 mph 70 % 0.00 in
09:29 41.8 °F 32.7 °F 30.31 in WNW 2.4 mph 3.5 mph 70 % 0.00 in
09:34 42.1 °F 33.0 °F 30.31 in West 1.8 mph 3.5 mph 70 % 0.00 in
09:39 42.4 °F 33.7 °F 30.31 in WNW 2.5 mph 4.0 mph 71 % 0.00 in
09:44 42.7 °F 33.2 °F 30.32 in WNW 2.2 mph 3.5 mph 69 % 0.00 in
09:49 43.0 °F 33.2 °F 30.32 in West 2.2 mph 3.5 mph 68 % 0.00 in
09:54 43.3 °F 33.4 °F 30.32 in WNW 1.4 mph 3.5 mph 68 % 0.00 in
10:00 43.8 °F 33.2 °F 30.32 in WNW 2.5 mph 4.6 mph 66 % 0.00 in
10:05 44.2 °F 33.6 °F 30.32 in WNW 3.0 mph 4.6 mph 66 % 0.00 in
10:10 44.6 °F 33.2 °F 30.32 in NW 4.9 mph 5.0 mph 64 % 0.00 in
10:15 44.9 °F 33.5 °F 30.32 in NNW 2.0 mph 4.0 mph 64 % 0.00 in
10:25 45.5 °F 32.8 °F 30.33 in WNW 4.6 mph 8.1 mph 61 % 0.00 in
10:30 45.6 °F 32.5 °F 30.33 in WNW 3.1 mph 5.0 mph 60 % 0.00 in
10:35 45.8 °F 32.3 °F 30.32 in WNW 2.3 mph 3.5 mph 59 % 0.00 in
10:40 45.9 °F 32.8 °F 30.32 in NW 2.4 mph 4.6 mph 60 % 0.00 in
10:45 45.9 °F 31.9 °F 30.32 in WNW 2.1 mph 3.5 mph 58 % 0.00 in
10:51 46.0 °F 32.0 °F 30.32 in WNW 3.0 mph 5.0 mph 58 % 0.00 in
10:56 46.1 °F 32.6 °F 30.32 in NW 2.4 mph 3.5 mph 59 % 0.00 in
11:01 46.3 °F 32.7 °F 30.32 in NNW 2.0 mph 5.0 mph 59 % 0.00 in
11:06 46.5 °F 32.1 °F 30.32 in WNW 2.5 mph 3.5 mph 57 % 0.00 in
11:11 46.5 °F 32.1 °F 30.32 in West 2.4 mph 3.5 mph 57 % 0.00 in
11:16 46.5 °F 32.1 °F 30.32 in NW 3.5 mph 4.6 mph 57 % 0.00 in
11:21 46.7 °F 32.3 °F 30.32 in North 1.9 mph 4.6 mph 57 % 0.00 in
11:26 46.9 °F 32.9 °F 30.32 in NNW 2.5 mph 5.0 mph 58 % 0.00 in
11:31 47.0 °F 31.7 °F 30.32 in NNE 3.1 mph 5.8 mph 55 % 0.00 in
11:36 47.1 °F 31.7 °F 30.32 in WNW 2.3 mph 6.0 mph 55 % 0.00 in
11:42 47.1 °F 31.3 °F 30.32 in WNW 4.5 mph 6.0 mph 54 % 0.00 in
11:47 46.8 °F 31.0 °F 30.32 in NW 3.1 mph 5.8 mph 54 % 0.00 in
11:52 46.7 °F 31.4 °F 30.32 in NW 2.6 mph 3.5 mph 55 % 0.00 in
11:57 46.5 °F 31.2 °F 30.31 in NNW 3.0 mph 3.5 mph 55 % 0.00 in
12:02 46.5 °F 31.2 °F 30.31 in NW 2.0 mph 3.5 mph 55 % 0.00 in
12:07 46.5 °F 31.2 °F 30.31 in NNE 1.5 mph 3.5 mph 55 % 0.00 in
12:12 46.6 °F 30.8 °F 30.31 in NNW 2.7 mph 4.0 mph 54 % 0.00 in
12:17 46.8 °F 31.0 °F 30.31 in NNE 3.1 mph 4.6 mph 54 % 0.00 in
12:27 47.3 °F 31.5 °F 30.31 in North 1.9 mph 4.6 mph 54 % 0.00 in
12:33 47.6 °F 31.3 °F 30.31 in North 1.9 mph 4.0 mph 53 % 0.00 in
12:38 47.8 °F 31.5 °F 30.31 in North 3.6 mph 4.6 mph 53 % 0.00 in
12:43 48.0 °F 30.7 °F 30.31 in WNW 1.4 mph 3.5 mph 51 % 0.00 in
12:48 48.1 °F 31.3 °F 30.30 in NNE 1.5 mph 3.5 mph 52 % 0.00 in
12:53 48.1 °F 30.8 °F 30.30 in NNW 2.1 mph 3.5 mph 51 % 0.00 in
12:58 48.2 °F 30.9 °F 30.29 in NNE 2.5 mph 3.5 mph 51 % 0.00 in
13:03 48.5 °F 31.2 °F 30.29 in NNE 1.7 mph 3.5 mph 51 % 0.00 in
13:08 48.6 °F 29.8 °F 30.29 in NNE 0.3 mph 1.2 mph 48 % 0.00 in
13:13 48.8 °F 30.0 °F 30.29 in North 1.3 mph 3.0 mph 48 % 0.00 in
13:18 49.0 °F 30.7 °F 30.28 in NNE 0.4 mph 3.5 mph 49 % 0.00 in
13:24 49.1 °F 30.2 °F 30.28 in NE 3.0 mph 3.5 mph 48 % 0.00 in
13:29 49.3 °F 29.9 °F 30.28 in NE 1.7 mph 3.5 mph 47 % 0.00 in
13:39 49.8 °F 30.9 °F 30.28 in NW 1.5 mph 3.0 mph 48 % 0.00 in
13:44 50.1 °F 30.1 °F 30.28 in NW 0.6 mph 2.3 mph 46 % 0.00 in
13:49 50.3 °F 30.3 °F 30.28 in SW 1.5 mph 3.0 mph 46 % 0.00 in
13:54 50.5 °F 29.9 °F 30.28 in WSW 3.3 mph 4.0 mph 45 % 0.00 in
13:59 50.6 °F 30.6 °F 30.28 in WNW 1.3 mph 3.5 mph 46 % 0.00 in
14:04 50.7 °F 30.7 °F 30.27 in West 0.6 mph 1.2 mph 46 % 0.00 in
14:09 50.6 °F 29.5 °F 30.27 in WNW 3.6 mph 6.0 mph 44 % 0.00 in
14:15 50.4 °F 29.8 °F 30.27 in Calm   2.3 mph 45 % 0.00 in
14:20 50.4 °F 30.4 °F 30.27 in WNW 0.3 mph 1.2 mph 46 % 0.00 in
14:25 50.3 °F 29.7 °F 30.27 in NW 2.4 mph 4.6 mph 45 % 0.00 in
14:30 50.1 °F 29.6 °F 30.27 in NW 2.0 mph 3.5 mph 45 % 0.00 in
14:35 49.8 °F 29.8 °F 30.27 in SW 2.9 mph 4.0 mph 46 % 0.00 in
14:40 49.6 °F 29.1 °F 30.27 in WSW 0.8 mph 2.0 mph 45 % 0.00 in
14:45 49.5 °F 29.0 °F 30.27 in NNW 0.8 mph 2.3 mph 45 % 0.00 in
14:50 49.3 °F 29.4 °F 30.27 in NW 0.8 mph 2.3 mph 46 % 0.00 in
14:55 49.0 °F 29.1 °F 30.28 in SW 3.5 mph 5.8 mph 46 % 0.00 in
15:00 48.7 °F 29.4 °F 30.28 in SW 4.2 mph 6.9 mph 47 % 0.00 in
15:06 48.5 °F 29.2 °F 30.27 in WNW 0.6 mph 2.0 mph 47 % 0.00 in
15:11 48.4 °F 28.5 °F 30.28 in West 1.2 mph 3.5 mph 46 % 0.00 in
15:16 48.2 °F 28.9 °F 30.28 in SW 1.2 mph 4.6 mph 47 % 0.00 in
15:21 48.2 °F 28.9 °F 30.28 in WSW 3.0 mph 5.0 mph 47 % 0.00 in
15:26 48.1 °F 29.3 °F 30.29 in WSW 0.5 mph 3.5 mph 48 % 0.00 in
15:31 48.0 °F 29.2 °F 30.29 in WSW 3.7 mph 4.0 mph 48 % 0.00 in
15:36 47.9 °F 29.1 °F 30.29 in SSW 2.9 mph 4.6 mph 48 % 0.00 in
15:41 47.8 °F 28.5 °F 30.29 in SW 3.5 mph 6.0 mph 47 % 0.00 in
15:46 47.8 °F 28.5 °F 30.29 in WSW 1.0 mph 3.5 mph 47 % 0.00 in
15:51 47.8 °F 28.5 °F 30.29 in WSW 1.6 mph 3.5 mph 47 % 0.00 in
15:57 47.8 °F 28.5 °F 30.29 in WSW 1.2 mph 1.2 mph 47 % 0.00 in
16:02 47.7 °F 28.4 °F 30.29 in SSW 1.2 mph 3.5 mph 47 % 0.00 in
16:07 47.6 °F 28.9 °F 30.29 in SSW 3.3 mph 3.5 mph 48 % 0.00 in
16:12 47.6 °F 28.9 °F 30.29 in Calm     48 % 0.00 in
16:17 47.5 °F 28.3 °F 30.30 in WSW 0.2 mph 2.3 mph 47 % 0.00 in
16:22 47.4 °F 28.2 °F 30.30 in WSW 0.1 mph 2.0 mph 47 % 0.00 in
16:27 47.4 °F 28.2 °F 30.30 in Calm   1.2 mph 47 % 0.00 in
16:32 47.4 °F 28.2 °F 30.31 in WSW 0.7 mph 2.3 mph 47 % 0.00 in
16:37 47.3 °F 29.1 °F 30.31 in WSW 0.1 mph 1.2 mph 49 % 0.00 in
16:42 47.1 °F 28.9 °F 30.30 in Calm     49 % 0.00 in
16:48 47.0 °F 29.3 °F 30.31 in Calm     50 % 0.00 in
16:53 46.8 °F 30.1 °F 30.31 in Calm     52 % 0.00 in
16:58 46.6 °F 30.4 °F 30.31 in Calm     53 % 0.00 in
17:03 46.4 °F 30.2 °F 30.31 in Calm     53 % 0.00 in
17:08 46.1 °F 30.4 °F 30.32 in Calm     54 % 0.00 in
17:13 45.9 °F 30.6 °F 30.31 in Calm     55 % 0.00 in
17:18 45.5 °F 31.1 °F 30.32 in Calm   1.0 mph 57 % 0.00 in
17:23 45.2 °F 30.9 °F 30.32 in Calm     57 % 0.00 in
17:28 45.0 °F 30.7 °F 30.32 in Calm     57 % 0.00 in
17:33 44.6 °F 30.7 °F 30.32 in SSE 0.4 mph 2.3 mph 58 % 0.00 in
17:39 44.2 °F 30.3 °F 30.32 in SSE 0.1 mph 1.2 mph 58 % 0.00 in
17:44 43.9 °F 30.9 °F 30.32 in South 1.5 mph 3.5 mph 60 % 0.00 in
17:49 43.6 °F 30.6 °F 30.33 in South 1.1 mph 2.3 mph 60 % 0.00 in
17:54 43.4 °F 30.8 °F 30.32 in South 1.2 mph 2.3 mph 61 % 0.00 in
17:59 43.1 °F 31.0 °F 30.33 in South 1.2 mph 2.3 mph 62 % 0.00 in
18:04 42.9 °F 30.8 °F 30.33 in South 0.4 mph 2.3 mph 62 % 0.00 in
18:09 42.7 °F 31.0 °F 30.33 in South 1.8 mph 3.5 mph 63 % 0.00 in
18:19 42.2 °F 31.3 °F 30.33 in South 1.3 mph 3.5 mph 65 % 0.00 in
18:24 42.0 °F 31.5 °F 30.34 in South 2.4 mph 3.5 mph 66 % 0.00 in
18:30 41.8 °F 31.3 °F 30.34 in SSW 2.0 mph 3.5 mph 66 % 0.00 in
18:35 41.7 °F 31.2 °F 30.34 in SSW 2.6 mph 4.0 mph 66 % 0.00 in
18:40 41.6 °F 31.4 °F 30.34 in SSW 0.9 mph 2.3 mph 67 % 0.00 in
18:45 41.4 °F 31.3 °F 30.35 in SSW 0.9 mph 2.3 mph 67 % 0.00 in
18:50 41.3 °F 31.2 °F 30.35 in SSW 2.1 mph 3.5 mph 67 % 0.00 in
18:55 41.1 °F 31.3 °F 30.35 in SSW 0.6 mph 3.5 mph 68 % 0.00 in
19:00 40.9 °F 31.1 °F 30.34 in South 2.9 mph 3.5 mph 68 % 0.00 in
19:05 40.8 °F 31.1 °F 30.34 in South 0.7 mph 3.5 mph 68 % 0.00 in
19:10 40.7 °F 31.0 °F 30.35 in South 1.2 mph 3.0 mph 68 % 0.00 in
19:15 40.5 °F 31.1 °F 30.34 in South 1.8 mph 3.0 mph 69 % 0.00 in
19:21 40.5 °F 30.8 °F 30.34 in South 0.7 mph 2.3 mph 68 % 0.00 in
19:26 40.3 °F 30.6 °F 30.35 in South 1.7 mph 3.5 mph 68 % 0.00 in
19:31 40.2 °F 30.8 °F 30.35 in South 2.3 mph 3.5 mph 69 % 0.00 in
19:36 40.1 °F 30.7 °F 30.35 in SSW 1.2 mph 2.3 mph 69 % 0.00 in
19:41 40.0 °F 30.6 °F 30.35 in SSW 2.0 mph 4.0 mph 69 % 0.00 in
19:51 39.8 °F 30.5 °F 30.36 in SSW 1.5 mph 3.5 mph 69 % 0.00 in
19:56 39.7 °F 30.4 °F 30.36 in SSW 2.2 mph 3.5 mph 69 % 0.00 in
20:01 39.6 °F 30.3 °F 30.36 in SSW 1.6 mph 2.3 mph 69 % 0.00 in
20:06 39.5 °F 30.2 °F 30.36 in SSW 0.8 mph 2.3 mph 69 % 0.00 in
20:12 39.4 °F 30.4 °F 30.36 in SSW 1.1 mph 2.3 mph 70 % 0.00 in
20:17 39.4 °F 30.4 °F 30.36 in SSW 1.1 mph 2.3 mph 70 % 0.00 in
20:22 39.3 °F 30.7 °F 30.36 in SSW 2.0 mph 3.5 mph 71 % 0.00 in
20:27 39.3 °F 30.7 °F 30.35 in South 1.4 mph 3.5 mph 71 % 0.00 in
20:32 39.2 °F 30.9 °F 30.35 in South 1.0 mph 3.5 mph 72 % 0.00 in
20:37 39.2 °F 30.9 °F 30.35 in South 2.0 mph 5.0 mph 72 % 0.00 in
20:42 39.1 °F 30.8 °F 30.35 in South 2.2 mph 5.8 mph 72 % 0.00 in
20:52 39.2 °F 30.9 °F 30.35 in South 2.2 mph 3.5 mph 72 % 0.00 in
20:58 39.3 °F 31.0 °F 30.35 in South 3.3 mph 3.5 mph 72 % 0.00 in
21:03 39.3 °F 31.0 °F 30.35 in SSW 3.1 mph 4.0 mph 72 % 0.00 in
21:08 39.3 °F 31.0 °F 30.35 in SSW 2.5 mph 5.8 mph 72 % 0.00 in
21:13 39.3 °F 31.0 °F 30.35 in SSW 1.1 mph 4.6 mph 72 % 0.00 in
21:18 39.3 °F 31.0 °F 30.34 in SSW 1.7 mph 3.5 mph 72 % 0.00 in
21:23 39.3 °F 31.4 °F 30.33 in South 1.1 mph 2.3 mph 73 % 0.00 in
21:28 39.2 °F 31.3 °F 30.33 in South 2.3 mph 3.5 mph 73 % 0.00 in
21:33 39.2 °F 31.3 °F 30.33 in South 0.4 mph 2.3 mph 73 % 0.00 in
21:43 39.2 °F 31.6 °F 30.33 in South 2.4 mph 4.6 mph 74 % 0.00 in
21:49 39.3 °F 31.4 °F 30.33 in South 3.0 mph 4.6 mph 73 % 0.00 in
21:54 39.3 °F 31.7 °F 30.32 in South 2.1 mph 5.8 mph 74 % 0.00 in
21:59 39.3 °F 31.7 °F 30.32 in South 1.6 mph 4.6 mph 74 % 0.00 in
22:04 39.3 °F 31.7 °F 30.32 in South 1.4 mph 3.5 mph 74 % 0.00 in
22:09 39.3 °F 32.0 °F 30.33 in South 2.5 mph 4.0 mph 75 % 0.00 in
22:14 39.2 °F 32.6 °F 30.34 in South 2.9 mph 4.0 mph 77 % 0.00 in
22:19 39.2 °F 32.6 °F 30.34 in South 2.6 mph 3.5 mph 77 % 0.00 in
22:24 39.1 °F 33.1 °F 30.34 in South 2.5 mph 4.6 mph 79 % 0.00 in
22:29 39.0 °F 33.4 °F 30.34 in South 2.3 mph 3.5 mph 80 % 0.00 in
22:34 38.8 °F 33.5 °F 30.34 in SSW 1.2 mph 3.5 mph 81 % 0.00 in
22:40 38.8 °F 33.8 °F 30.34 in SSW 2.1 mph 4.0 mph 82 % 0.00 in
22:45 38.7 °F 33.7 °F 30.33 in SSW 1.2 mph 3.5 mph 82 % 0.00 in
22:50 38.6 °F 33.9 °F 30.33 in SSW 1.0 mph 1.2 mph 83 % 0.00 in
22:55 38.5 °F 33.5 °F 30.33 in SSE 0.5 mph 4.6 mph 82 % 0.00 in
23:00 38.5 °F 33.2 °F 30.32 in SSE 0.6 mph 2.3 mph 81 % 0.00 in
23:05 38.5 °F 32.9 °F 30.32 in SSE 0.2 mph 1.2 mph 80 % 0.00 in
23:10 38.5 °F 32.9 °F 30.32 in SSE 2.0 mph 3.5 mph 80 % 0.00 in
23:15 38.5 °F 32.6 °F 30.32 in SSE 3.0 mph 5.0 mph 79 % 0.00 in
23:25 38.5 °F 32.6 °F 30.32 in SSE 0.6 mph 2.3 mph 79 % 0.00 in
23:31 38.5 °F 32.6 °F 30.32 in SSE 1.7 mph 3.5 mph 79 % 0.00 in
23:36 38.5 °F 32.9 °F 30.32 in SSE 1.5 mph 3.5 mph 80 % 0.00 in
23:41 38.4 °F 32.8 °F 30.33 in SSE 1.9 mph 3.5 mph 80 % 0.00 in
23:46 38.4 °F 32.5 °F 30.33 in SSE 0.1 mph 2.3 mph 79 % 0.00 in
23:51 38.3 °F 32.7 °F 30.32 in SSE 0.1 mph 1.2 mph 80 % 0.00 in
23:56 38.2 °F 32.9 °F 30.31 in SSE 0.5 mph 1.2 mph 81 % 0.00 in
Crab Meadow Weather
Compliments of Weather Underground - 3 mb

Script developed by  Jim McMurry - jmcmurry@mwt.net Adapted for the template by  Wim van der Kuil - Leuven-Template.eu

Extremes: In Wyndham, Australia, the temperature reached 90 degrees F for 333 days in 1946.